Location: Pittsburgh
(40.4410°N, 79.9960°W)
Time: 23:52:35
(UTC-04:00)

BlueWalker 3 - Pass Details

Date: 19 March 2026
Orbit: 449 x 457 km, 53.2° (Epoch: 17 April)

Event Time Altitude Azimuth Distance (km) Brightness Sun altitude
Exits shadow 05:14:02 23° 126° (SE) 1,014 3.7 -25.1°
Drops below altitude 10° 05:15:29 10° 128° (SE) 1,588 4.8 -24.9°
Sets 05:17:36 0° 129° (SE) 2,456 5.8 -24.5°
